OV1-5

Satellite information

Favourite Embed

Satellite Type and Status

PAYLOADIN ORBIT

Key statistics

Satellite OV1-5 at a glance.

Uptime

21809

Days in orbit

Revolutions

≈ 13.7

Per day

Orbit

SSO

Sun Synchronous Orbit

Inclination

144.6

Latest

Satellite identification and parameters

Extended collection of information and parameters for OV1-5.

Object identification

Identified? True

Debris? False

Object name: OV1-5

International designator: 1966-025B

Object number (NORAD): 2122

Object ID (CCSDS): 2122

Country: UNITED STATES OF AMERICA (US)

Current information (Y/N): Y

RCS size: MEDIUM

Orbital parameters

Period: 105.406 minutes

Inclination: 144.633 deg

SMA: 7391.579 km

Apoapsis: 1048.14 km

Periapsis: 978.749 km

RAAN: 113.8778 deg

Eccentricy: 0.00469393

Argument of periapsis: 60.6327 deg

Mean anomaly: 299.9025 deg

Mean motion: 13.66145325 rev/day

Mean motion (dot): 0.00000337 rev/day2

B* drag term: 0.000094034964 1/REarth

Two-line elements (TLE)

Creation date: Dec. 12, 2025, 10:14 a.m.

Reference frame: TEME

Reference center: EARTH

Epoch: Dec. 12, 2025, 5:45 a.m. UTC

TLE line 0: 0 OV1-5

TLE line 1: 1 02122U 66025B 25346.24001453 .00000337 00000-0 94035-4 0 9993

TLE line 2: 2 02122 144.6330 113.8778 0046939 60.6327 299.9025 13.66145325979535

Live tracking on map

Real-time ground track for satellite OV1-5.

In-orbit conjunctions

There are no conjunctions computed for OV1-5, at the moment. Check back to stay up to date, as we update our databases every day.

Go to all conjunctions

Associated space launch

The OV1 (Orbiting Vehicle 1) were small research satellite to be launched piggy back on Atlas ICBM test flights. They consisted in general of the OV1 satellite and the OV1-PM propulsion module (or upper stage) to reach orbit.

OV1-5 was lifted into orbit during the mission ‘Atlas D | OV1-4 & 5’, on board a Atlas D space rocket.

The launch took place on March 30, 1966, 9:20 a.m. from 576B3.

For more information about the launch, click the button.

Launch to space Atlas D | OV1-4 & 5
Atlas D | OV1-4 & 5

Agency: N/A

Status: Launch Successful

Launch date: March 30, 1966, 9:20 a.m. UTC

Rocket: Atlas D

Launch pad: 576B3

Location: Vandenberg SFB, CA, USA

...

Latest news about this satellite

There are no fresh news available about this satellite. Check back as we update our databases every day.


Newsletter sign-up

Weekly statistics, charts and insights to help you stay on top of the space industry.